Temperature
20 18 17 17 16 16 15 14 14 13 13 13 13 12 12 12 12 12 12 12 12 12 12 12 13 13 13 13 13 14 14 14 14 14 15 15 15 16 16 16 17 17 17
20 18 17 17 16 16 15 15 14 13 13 12 12 12 12 12 12 12 12 12 12 12 12 12 12 12 13 13 13 13 13 14 14 14 15 15 15 15 16 16 16 17 17
20 19 18 17 16 16 15 14 14 13 13 12 12 12 12 12 12 12 12 12 12 12 12 12 12 12 12 13 13 13 13 13 14 14 14 15 16 16 16 16 16 16 16
20 19 18 17 16 16 15 14 14 13 13 12 12 12 12 12 12 12 12 12 12 12 12 12 12 12 12 12 13 13 13 13 14 14 14 14 14 15 15 16 16 16 16
19 19 18 17 16 16 15 14 14 13 13 12 12 12 12 12 12 12 12 12 12 12 12 12 12 12 12 12 12 12 13 13 13 13 13 14 14 14 15 15 15 15 16
19 18 18 17 16 15 15 14 14 13 13 13 12 12 12 12 12 12 12 12 12 12 12 12 12 12 12 12 12 12 12 13 13 13 13 13 14 14 14 15 15 15 15
19 18 18 17 16 16 15 14 14 13 13 13 12 12 12 12 12 12 12 12 12 12 12 12 12 12 12 12 12 12 12 13 13 13 13 13 13 13 14 14 14 14 15
19 18 18 17 16 16 15 15 14 13 13 13 12 12 12 12 12 12 12 12 12 12 12 11 12 12 12 12 12 12 12 12 12 12 13 13 13 13 13 13 14 14 14
19 18 18 17 16 16 15 15 14 14 13 13 13 12 12 12 12 12 11 12 11 11 12 12 12 12 12 12 12 12 12 12 12 12 12 13 13 13 13 13 13 13 14
19 18 18 17 17 16 15 15 14 14 13 13 13 12 12 12 12 12 12 12 12 12 12 12 12 12 12 12 12 12 12 12 12 12 12 12 13 13 13 13 13 13 13
19 18 18 17 17 16 15 15 14 14 13 13 13 12 12 12 12 12 12 12 12 12 12 12 12 12 12 12 12 12 12 12 12 12 12 12 12 12 13 13 13 13 13
19 18 18 17 17 16 16 15 15 14 14 13 13 13 12 12 12 12 12 12 12 12 12 12 12 12 12 12 12 12 12 12 12 12 12 12 12 12 12 12 12 13 13
19 18 18 17 17 16 16 15 15 14 14 14 13 13 13 12 12 12 12 12 12 12 12 12 12 12 12 12 12 12 12 12 12 12 12 12 12 12 12 12 12 12 12
19 19 18 18 17 17 16 15 15 15 14 14 13 13 13 13 12 12 12 12 12 12 12 12 12 12 12 12 12 12 12 12 12 12 12 12 12 12 12 12 12 12 12
19 19 18 18 17 17 16 16 15 15 14 14 14 13 13 13 13 13 13 12 12 12 12 12 12 12 12 12 12 12 12 12 12 12 12 12 12 12 12 12 12 12 12
20 19 19 18 18 17 17 16 16 15 15 14 14 14 13 13 13 13 13 13 13 13 12 12 12 12 12 13 13 12 12 12 12 12 12 11 12 12 12 12 12 12 12
20 20 19 19 18 18 17 16 16 15 15 14 14 14 14 14 13 13 13 13 13 13 13 13 12 12 12 13 13 13 12 12 12 12 12 11 11 12 11 12 12 12 12
21 20 20 19 19 18 17 17 16 16 15 15 14 14 14 14 14 14 13 13 13 13 13 13 13 13 13 13 13 13 12 12 12 12 12 12 11 11 12 12 12 12 11
21 20 20 19 19 18 17 17 16 16 15 15 15 14 14 14 14 14 14 13 13 13 13 13 13 13 13 13 13 13 12 12 12 12 12 12 11 12 12 12 11 11 11
21 20 20 19 19 18 17 17 16 16 16 15 15 15 15 15 14 14 14 14 14 14 13 13 13 13 13 13 13 13 12 12 12 12 12 12 12 12 12 12 11 11 11
21 21 20 19 19 18 18 17 17 16 16 16 15 15 15 15 14 14 14 14 14 14 13 13 13 13 13 13 13 13 12 12 12 12 12 11 12 12 12 12 11 11 11
21 21 20 19 19 18 18 17 17 16 16 16 16 15 15 15 14 14 14 14 14 13 13 13 13 13 13 13 13 13 13 12 12 12 12 12 12 12 12 12 12 12 11
21 20 20 19 19 18 18 17 17 16 16 16 16 15 15 15 14 14 14 13 13 13 13 12 12 12 12 12 13 13 12 12 12 12 12 12 12 11 11 11 11 11 11
20 20 20 19 19 18 18 17 17 17 16 16 15 15 15 14 14 14 13 13 12 12 12 12 12 12 12 12 12 12 12 12 12 11 11 11 11 11 11 11 11 11 11
20 20 20 19 19 18 18 17 17 16 16 15 15 15 14 14 13 13 13 13 13 12 12 12 11 11 11 11 11 11 11 11 11 11 11 10 10 10 10 10 10 10 10
20 20 19 19 19 18 18 17 17 16 16 15 15 15 14 14 13 13 13 12 12 12 12 11 11 11 11 11 11 11 11 11 11 10 10 10 10 10 10 9 9 9 9
Wind_Speed
8 7 7 6 5 3 2 1 3 3 4 4 4 4 4 4 4 4 5 5 5 6 5 4 4 4 3 3 4 3 4 3 3 3 4 5 6 6 5 6 6 6 7
9 8 8 7 6 4 2 2 2 3 3 3 4 4 4 4 4 4 4 5 5 5 5 4 4 3 3 3 3 3 3 3 2 3 3 3 5 6 6 6 5 6 6
10 10 9 8 6 5 3 2 2 2 3 3 3 3 3 3 2 3 4 4 5 4 5 5 4 3 3 3 3 3 3 3 3 2 2 3 3 3 5 5 6 5 5
10 9 9 8 7 5 3 2 2 2 2 3 3 4 4 4 4 4 4 4 4 4 4 4 4 3 3 3 3 3 3 3 2 2 3 3 2 2 2 4 4 4 5
10 10 9 8 6 5 3 3 2 2 2 2 2 4 4 4 4 4 4 5 4 4 4 4 4 3 3 3 3 3 3 3 3 2 2 3 3 4 3 2 2 3 4
10 9 8 7 6 5 4 3 2 2 1 2 3 3 4 5 5 5 5 4 4 4 4 4 4 3 3 3 3 3 3 3 3 3 2 2 2 3 2 2 2 2 2
10 10 10 9 7 6 5 4 3 2 2 2 2 3 3 4 5 5 4 4 4 4 5 5 5 4 4 4 3 3 2 2 2 3 3 3 3 3 3 2 2 2 2
10 10 10 9 8 7 6 5 4 3 2 2 2 2 2 3 3 4 4 4 4 4 5 5 5 4 4 3 2 2 2 2 2 3 3 3 3 3 3 2 2 3 3
9 10 9 9 8 7 7 6 4 3 3 2 2 2 2 2 3 3 3 4 4 4 5 5 5 4 3 3 2 2 2 2 2 2 2 2 2 3 3 2 3 3 3
9 10 9 9 8 7 7 6 5 4 3 2 2 1 2 2 2 3 3 4 5 5 5 5 5 4 3 2 2 2 2 2 2 2 2 2 2 2 2 3 3 3 3
9 10 9 9 8 8 7 7 6 5 4 3 2 2 1 1 2 2 3 3 4 4 4 4 5 5 4 3 2 2 2 2 2 2 2 2 1 1 2 2 3 3 4
9 9 9 10 9 9 8 8 7 5 5 4 3 2 1 1 2 2 2 3 3 4 4 4 4 4 4 4 3 3 2 2 2 2 2 1 1 1 2 2 3 3 4
9 9 10 10 10 9 9 8 7 6 5 5 4 3 3 2 2 2 2 2 3 3 3 3 4 4 4 4 3 2 2 2 2 2 2 2 2 2 2 2 3 3 3
10 11 11 11 10 10 9 9 8 7 6 6 5 4 3 2 2 1 2 2 2 3 3 3 3 3 3 3 3 2 2 2 2 2 2 3 3 3 2 2 3 3 3
12 12 12 12 11 11 10 9 9 8 8 7 6 5 4 3 2 2 2 2 2 2 3 3 3 3 3 3 4 3 3 2 2 2 2 3 3 5 4 3 3 3 3
14 13 13 13 13 12 12 11 10 9 9 8 7 6 5 4 3 3 2 2 2 2 2 3 2 3 2 4 5 5 3 2 2 2 2 2 1 1 1 2 3 4 4
14 14 14 14 13 13 12 12 11 10 9 9 7 7 6 5 4 4 3 3 3 2 3 3 2 2 2 1 3 4 3 3 3 3 2 2 2 3 3 1 3 2 2
13 14 13 13 13 12 12 12 11 10 10 9 8 7 7 6 5 5 4 4 3 3 3 3 3 2 2 1 3 5 3 2 2 2 2 2 3 4 4 3 2 2 2
12 12 13 13 13 13 13 13 12 11 10 9 9 8 7 6 6 5 5 4 4 4 4 3 3 3 2 2 3 6 3 2 2 2 2 2 2 4 5 3 3 3 2
9 10 11 12 13 13 13 13 13 12 11 10 9 8 7 6 6 5 5 4 4 4 4 4 4 3 3 0 2 7 3 3 2 2 1 1 3 5 6 4 3 4 4
10 11 12 12 13 13 14 14 13 12 10 9 8 7 7 6 5 4 4 4 4 4 4 4 4 4 3 1 2 4 4 3 3 3 2 1 2 3 5 6 5 5 6
10 11 12 12 12 13 14 14 13 11 10 9 8 8 7 5 4 4 3 3 3 4 4 4 3 3 2 1 1 1 3 5 3 3 2 1 3 1 3 4 5 6 7
10 11 12 12 12 13 14 14 12 11 10 9 9 8 7 5 4 4 3 3 3 3 3 3 3 2 1 1 2 2 2 3 3 1 4 4 2 2 2 1 4 5 4
11 11 13 13 13 13 13 12 12 11 11 10 9 8 7 6 4 2 2 1 1 2 2 2 2 1 1 1 1 1 2 4 3 2 3 3 1 1 2 3 2 3 4
10 12 14 14 14 14 13 12 12 12 12 11 9 8 7 6 5 4 3 1 3 2 1 1 1 2 2 5 7 4 2 1 1 0 1 1 1 2 3 3 4 4 4
11 13 14 14 15 14 14 13 12 12 12 11 10 8 7 6 6 6 6 9 7 10 9 7 5 4 6 7 7 8 7 7 4 1 2 3 4 4 4 5 5 5 6
Wind_Direction
199 190 190 193 198 202 238 297 315 336 336 336 330 330 329 329 334 337 340 329 325 325 317 307 307 300 286 280 273 265 253 246 246 246 243 234 230 233 224 227 230 229 232
199 192 195 196 206 208 232 277 308 331 338 337 325 321 320 319 333 328 331 336 334 327 315 311 303 299 289 280 277 266 261 251 229 237 239 226 215 222 221 217 224 232 224
208 197 197 200 204 212 224 257 296 315 330 330 324 319 313 298 324 338 337 336 332 328 321 318 312 307 296 293 283 272 263 260 239 231 237 240 232 209 206 210 212 219 226
209 201 198 202 206 208 214 240 264 301 321 317 325 331 328 337 342 333 334 330 335 336 330 321 315 315 311 301 286 280 271 266 258 237 243 262 295 253 203 199 205 214 224
204 201 198 200 201 196 202 222 244 277 303 311 323 314 328 338 337 335 339 339 350 347 343 331 324 322 316 312 303 290 275 264 266 258 244 247 254 262 254 219 208 216 222
198 196 189 189 191 189 194 207 229 250 267 286 306 317 330 330 335 343 346 341 348 350 357 340 329 325 323 314 304 289 273 270 269 266 258 250 249 251 252 250 245 246 247
191 188 185 188 190 191 195 204 216 234 240 272 301 320 325 327 334 342 345 340 345 349 351 341 331 330 327 320 306 292 287 270 267 265 266 262 262 265 263 251 258 266 265
191 190 189 189 189 191 193 201 212 224 227 263 300 319 327 324 341 342 336 341 346 351 346 339 335 333 328 321 312 297 296 292 278 265 265 264 257 254 253 252 251 252 251
191 193 190 189 189 190 192 198 205 211 216 247 281 312 334 338 342 336 336 342 346 349 348 342 340 344 339 329 329 321 321 318 303 283 261 260 252 247 245 246 255 256 258
190 192 190 190 189 189 190 193 202 209 210 225 246 291 319 332 330 328 344 341 345 351 350 354 354 359 358 342 336 328 333 311 318 298 275 263 252 245 238 229 232 244 254
193 191 189 189 187 186 189 193 198 206 211 218 224 236 274 303 311 329 341 338 343 351 359 6 3 6 7 3 356 349 352 338 332 305 284 279 282 260 253 244 235 234 241
194 191 188 186 187 190 193 197 199 201 204 210 216 229 249 271 300 328 335 339 349 357 3 10 13 12 8 6 4 3 6 4 348 336 331 327 320 294 276 261 258 253 251
194 191 190 193 193 194 196 198 199 198 195 197 209 220 228 252 282 310 330 332 343 352 2 7 12 12 9 8 5 6 12 16 9 357 349 344 328 296 284 267 266 266 263
197 195 195 197 196 196 197 198 198 195 193 194 207 218 227 234 258 282 305 316 331 342 348 357 4 5 2 358 4 11 18 19 16 1 351 344 338 325 310 278 264 263 263
205 202 200 199 196 196 197 197 196 194 193 197 207 216 221 223 239 253 271 292 311 322 337 342 349 359 355 357 354 355 359 6 7 8 10 10 2 352 333 318 305 284 269
209 205 203 199 198 197 196 194 195 193 194 201 207 208 217 220 231 244 256 272 284 299 315 322 333 343 349 20 348 323 337 345 355 2 360 9 355 13 293 311 327 321 297
209 204 203 200 200 198 196 193 194 190 195 202 205 204 209 216 227 232 239 251 259 273 286 295 305 313 4 18 321 310 314 330 342 347 348 358 355 329 334 221 210 242 260
209 204 202 198 197 194 191 190 187 191 197 202 203 203 208 214 219 224 235 248 260 263 270 284 291 293 308 284 284 288 278 304 322 327 328 327 343 358 342 326 317 325 315
208 201 198 193 191 188 186 186 189 193 198 202 204 202 204 210 217 224 233 243 252 257 260 268 276 276 267 211 261 278 270 275 288 305 325 325 340 26 329 307 315 322 324
197 190 186 187 187 184 183 188 192 195 199 199 202 200 202 208 219 230 241 242 244 253 259 259 265 272 281 139 257 276 262 268 278 284 278 54 342 355 330 309 313 317 330
186 180 179 184 185 179 181 191 194 197 194 190 192 194 199 208 219 230 236 240 243 249 253 257 256 260 277 232 228 276 269 272 277 281 285 8 78 337 327 310 321 337 321
183 180 180 181 179 178 184 192 194 189 181 180 185 190 194 199 203 212 226 234 238 244 249 255 260 259 254 294 145 267 275 297 276 283 297 33 84 350 334 328 352 325 302
188 185 184 179 178 182 189 193 186 179 177 179 183 185 184 185 193 201 209 222 234 253 265 267 276 282 295 158 163 217 235 258 260 293 40 38 26 281 235 48 331 310 308
194 187 184 184 184 185 190 193 180 176 180 183 183 183 183 179 174 171 190 205 239 254 266 283 293 310 324 336 330 262 201 190 209 216 151 164 180 278 347 341 330 343 352
198 192 193 192 189 184 186 185 179 179 184 184 181 182 178 171 158 136 84 90 62 27 353 346 340 339 359 30 17 350 345 350 36 351 139 61 41 25 18 11 11 5 2
203 199 199 195 191 185 183 180 180 183 186 185 181 178 172 165 158 143 112 66 70 70 61 45 32 62 61 58 56 56 53 50 39 60 78 57 43 31 22 11 9 12 10
Height
1516 1517 1518 1519 1519 1520 1520 1519 1518 1517 1514 1513 1511 1510 1508 1507 1505 1503 1500 1499 1498 1496 1495 1494 1493 1493 1493 1492 1493 1493 1493 1494 1494 1495 1496 1497 1498 1500 1501 1503 1505 1507 1508
1513 1515 1516 1517 1518 1518 1518 1518 1517 1515 1514 1511 1510 1508 1507 1505 1503 1501 1499 1498 1496 1494 1494 1493 1492 1491 1491 1491 1491 1491 1491 1492 1492 1493 1494 1495 1497 1496 1498 1499 1501 1503 1505
1510 1512 1514 1515 1516 1516 1516 1516 1515 1514 1512 1511 1509 1507 1506 1505 1503 1501 1499 1497 1495 1493 1492 1491 1491 1490 1490 1490 1489 1490 1490 1490 1491 1491 1492 1493 1493 1494 1495 1496 1498 1500 1502
1507 1509 1511 1513 1514 1514 1514 1514 1514 1513 1512 1510 1509 1507 1506 1505 1503 1500 1498 1496 1495 1493 1491 1490 1489 1489 1489 1488 1488 1488 1488 1488 1489 1489 1490 1491 1492 1492 1493 1494 1495 1497 1499
1504 1507 1508 1510 1512 1512 1512 1513 1512 1512 1510 1509 1507 1506 1505 1504 1502 1500 1498 1496 1495 1492 1491 1490 1489 1488 1488 1487 1487 1486 1487 1487 1488 1488 1488 1489 1490 1491 1491 1492 1493 1495 1496
1501 1504 1506 1508 1509 1510 1510 1511 1511 1510 1509 1508 1507 1506 1505 1503 1501 1500 1498 1496 1495 1493 1491 1490 1489 1488 1487 1487 1486 1485 1485 1486 1486 1486 1487 1488 1488 1489 1490 1490 1491 1493 1494
1499 1501 1503 1505 1507 1508 1509 1509 1509 1509 1508 1507 1506 1505 1504 1502 1501 1499 1498 1496 1495 1493 1491 1489 1488 1487 1486 1485 1485 1484 1484 1485 1485 1485 1486 1486 1487 1488 1489 1489 1490 1491 1492
1496 1499 1501 1503 1504 1506 1507 1507 1508 1508 1507 1506 1506 1505 1504 1502 1501 1499 1498 1496 1495 1493 1491 1489 1488 1486 1485 1485 1484 1484 1484 1484 1484 1484 1484 1484 1485 1486 1487 1488 1489 1489 1490
1494 1496 1499 1501 1502 1504 1505 1506 1506 1506 1506 1506 1505 1504 1503 1502 1501 1499 1498 1496 1494 1492 1490 1489 1487 1486 1485 1484 1484 1483 1483 1483 1483 1483 1483 1483 1484 1485 1485 1486 1487 1489 1489
1492 1494 1496 1498 1500 1502 1503 1504 1504 1505 1505 1504 1504 1503 1503 1502 1500 1499 1498 1496 1494 1492 1491 1489 1487 1486 1485 1484 1483 1483 1483 1483 1482 1482 1482 1482 1483 1483 1484 1484 1485 1486 1487
1490 1492 1494 1496 1498 1499 1500 1502 1503 1503 1503 1503 1503 1503 1502 1501 1500 1499 1497 1496 1494 1493 1491 1489 1488 1487 1485 1484 1484 1483 1483 1482 1482 1482 1482 1482 1482 1482 1482 1483 1483 1484 1485
1487 1489 1491 1493 1495 1497 1498 1500 1501 1501 1502 1502 1502 1502 1501 1500 1500 1499 1498 1496 1495 1493 1492 1490 1489 1487 1486 1485 1484 1483 1483 1482 1482 1481 1481 1481 1481 1480 1481 1481 1481 1482 1482
1485 1486 1488 1490 1492 1494 1496 1497 1499 1499 1500 1500 1500 1500 1500 1500 1499 1499 1497 1496 1495 1494 1493 1491 1490 1489 1487 1486 1485 1484 1483 1483 1482 1481 1481 1481 1480 1480 1480 1479 1479 1479 1479
1481 1483 1485 1487 1489 1491 1493 1495 1496 1497 1498 1498 1499 1499 1499 1499 1498 1498 1497 1496 1495 1494 1493 1492 1491 1489 1488 1487 1486 1485 1484 1483 1482 1481 1481 1480 1480 1479 1479 1478 1478 1477 1477
1478 1479 1481 1484 1486 1488 1490 1492 1494 1495 1496 1497 1497 1498 1498 1498 1497 1497 1496 1496 1495 1494 1493 1492 1491 1490 1488 1487 1486 1485 1485 1484 1483 1482 1481 1480 1479 1478 1477 1477 1476 1476 1476
1473 1475 1477 1480 1482 1484 1487 1489 1491 1492 1493 1495 1496 1496 1496 1496 1496 1496 1496 1495 1494 1494 1493 1492 1491 1490 1489 1487 1486 1485 1484 1484 1483 1482 1481 1480 1479 1478 1476 1476 1475 1474 1474
1468 1470 1473 1475 1478 1481 1483 1486 1488 1490 1491 1493 1494 1494 1495 1495 1495 1495 1495 1494 1494 1493 1492 1491 1491 1490 1489 1487 1486 1485 1484 1483 1483 1482 1481 1480 1478 1477 1477 1475 1474 1473 1472
1463 1466 1469 1471 1474 1477 1480 1483 1485 1487 1489 1490 1491 1492 1493 1493 1494 1494 1494 1493 1493 1492 1491 1491 1490 1489 1488 1487 1486 1485 1484 1483 1482 1481 1480 1479 1478 1477 1476 1475 1474 1473 1472
1459 1462 1465 1468 1471 1474 1476 1479 1482 1484 1486 1487 1489 1490 1491 1491 1492 1492 1492 1492 1491 1491 1490 1489 1489 1488 1487 1486 1485 1484 1484 1483 1482 1481 1480 1479 1478 1476 1475 1474 1473 1472 1471
1455 1458 1461 1464 1467 1470 1473 1476 1479 1481 1483 1484 1486 1487 1488 1489 1489 1490 1490 1490 1489 1489 1488 1488 1487 1486 1486 1485 1484 1483 1483 1482 1482 1480 1479 1477 1476 1475 1474 1474 1473 1472 1470
1452 1454 1457 1460 1463 1466 1469 1472 1475 1478 1480 1481 1483 1484 1485 1486 1487 1487 1487 1487 1487 1486 1486 1485 1485 1484 1483 1483 1482 1481 1481 1481 1480 1479 1478 1477 1475 1474 1473 1472 1471 1470 1468
1449 1451 1454 1457 1460 1462 1466 1469 1472 1474 1476 1478 1480 1481 1482 1483 1484 1484 1484 1484 1484 1484 1484 1483 1483 1482 1481 1480 1479 1479 1478 1478 1478 1477 1476 1475 1473 1473 1472 1471 1470 1468 1467
1446 1448 1451 1453 1456 1459 1462 1466 1468 1471 1473 1475 1477 1478 1479 1480 1481 1481 1482 1482 1481 1481 1481 1481 1480 1480 1478 1477 1476 1476 1475 1475 1475 1474 1473 1473 1472 1471 1470 1469 1468 1467 1466
1443 1445 1447 1449 1452 1455 1458 1462 1465 1467 1469 1472 1473 1475 1476 1477 1478 1478 1478 1479 1479 1479 1478 1478 1477 1477 1476 1475 1474 1473 1473 1472 1472 1472 1471 1470 1470 1469 1468 1467 1466 1465 1464
1439 1440 1443 1445 1448 1451 1454 1457 1460 1463 1466 1468 1470 1471 1473 1474 1474 1475 1475 1475 1475 1476 1476 1475 1475 1474 1474 1472 1471 1471 1471 1470 1470 1469 1469 1469 1468 1467 1467 1466 1465 1463 1462
1434 1436 1438 1440 1443 1446 1449 1452 1455 1458 1461 1464 1466 1467 1469 1470 1471 1471 1472 1472 1472 1472 1472 1472 1472 1471 1471 1470 1469 1469 1468 1468 1467 1468 1467 1467 1466 1465 1464 1464 1463 1462 1460